This is the latest recevied weather packets stored in our database for station/object KQ4WWD. If no packets are shown the sender has not sent any weather packets the latest 10 day(s).
| Time | Temp. | Humidity | Pressure | Rain* | Wind** | Luminosity | Snow |
|---|---|---|---|---|---|---|---|
| 1787860541 | 29.44° C | 79% | 1015.3 hPa | 0 mm | - | 284 W/m² | - |
| 1787860236 | 29.44° C | 78% | 1015.2 hPa | 0 mm | - | 270 W/m² | - |
| 1787859932 | 28.89° C | 79% | 1015.2 hPa | 0 mm | - | 272 W/m² | - |
| 1787859627 | 28.89° C | 79% | 1015.4 hPa | 0 mm | - | 232 W/m² | - |
| 1787859326 | 28.89° C | 80% | 1015.3 hPa | 0 mm | - | 201 W/m² | - |
| 1787859022 | 28.33° C | 78% | 1015.6 hPa | 0 mm | - | 174 W/m² | - |
| 1787858724 | 28.33° C | 79% | 1015.3 hPa | 0 mm | - | 155 W/m² | - |
| 1787858414 | 28.33° C | 79% | 1015.4 hPa | 0 mm | - | 151 W/m² | - |
| 1787858114 | 28.33° C | 79% | 1015.5 hPa | 0 mm | - | 152 W/m² | - |
| 1787857809 | 28.33° C | 79% | 1015.6 hPa | 0 mm | - | 153 W/m² | - |
| 1787857504 | 28.33° C | 79% | 1015.7 hPa | 0 mm | - | 154 W/m² | - |
| 1787857203 | 28.33° C | 79% | 1015.9 hPa | 0 mm | - | 155 W/m² | - |
| 1787856898 | 28.89° C | 79% | 1015.8 hPa | 0 mm | - | 154 W/m² | - |
| 1787856597 | 28.33° C | 79% | 1015.8 hPa | 0 mm | - | 152 W/m² | - |
| 1787856292 | 28.89° C | 78% | 1016 hPa | 0 mm | - | 152 W/m² | - |
| 1787855988 | 28.33° C | 79% | 1015.9 hPa | 0 mm | - | 152 W/m² | - |
| 1787855687 | 28.33° C | 79% | 1016.1 hPa | 0 mm | - | 153 W/m² | - |
| 1787855382 | 28.89° C | 78% | 1016 hPa | 0 mm | - | 155 W/m² | - |
| 1787855078 | 28.33° C | 78% | 1016.4 hPa | 0 mm | - | 162 W/m² | - |
| 1787854773 | 28.33° C | 79% | 1016.4 hPa | 0 mm | - | 170 W/m² | - |
| 1787854472 | 28.33° C | 79% | 1016.5 hPa | 0 mm | - | 174 W/m² | - |
| 1787854167 | 29.44° C | 77% | 1016.4 hPa | 0 mm | - | 189 W/m² | - |
| 1787853862 | 29.44° C | 77% | 1016.3 hPa | 0 mm | - | 201 W/m² | - |
| 1787853561 | 28.89° C | 78% | 1016.3 hPa | 0 mm | - | 212 W/m² | - |
| 1787853260 | 28.89° C | 79% | 1016.4 hPa | 0 mm | - | 200 W/m² | - |
* Rain latest hour (hover to see other rain measurements)
** Current wind speed in m/s (hover to see current wind gust speed)